QPF
0.07 0.08 0.08 0.09 0.09 0.09 0.09 0.09 0.10 0.08 0.07 0.05 0.04 0.03 0.03 0.03 0.05 0.06 0.07 0.09 0.09 0.08 0.07 0.07 0.07 0.08 0.07 0.07 0.07 0.07 0.07 0.08 0.09 0.10 0.12 0.15 0.18 0.19
0.07 0.08 0.08 0.08 0.08 0.08 0.08 0.08 0.10 0.09 0.08 0.05 0.05 0.04 0.03 0.04 0.06 0.05 0.06 0.08 0.08 0.08 0.08 0.08 0.09 0.08 0.06 0.05 0.05 0.06 0.07 0.07 0.08 0.09 0.10 0.11 0.10 0.10
0.05 0.05 0.06 0.07 0.08 0.07 0.07 0.07 0.07 0.07 0.06 0.05 0.05 0.04 0.04 0.05 0.06 0.07 0.08 0.07 0.08 0.09 0.08 0.08 0.07 0.06 0.05 0.05 0.05 0.06 0.06 0.07 0.06 0.06 0.06 0.06 0.06 0.05
0.04 0.04 0.05 0.06 0.06 0.07 0.07 0.06 0.06 0.08 0.08 0.08 0.05 0.04 0.05 0.06 0.07 0.08 0.07 0.07 0.08 0.09 0.07 0.07 0.06 0.06 0.07 0.07 0.07 0.07 0.07 0.07 0.06 0.05 0.05 0.04 0.04 0.04
0.04 0.05 0.06 0.07 0.07 0.07 0.06 0.06 0.06 0.07 0.08 0.08 0.06 0.06 0.05 0.06 0.08 0.07 0.07 0.07 0.06 0.07 0.08 0.07 0.07 0.07 0.08 0.08 0.08 0.08 0.07 0.06 0.06 0.06 0.06 0.06 0.07 0.07
0.05 0.05 0.06 0.05 0.06 0.06 0.05 0.06 0.07 0.08 0.08 0.07 0.05 0.04 0.05 0.05 0.06 0.05 0.05 0.06 0.06 0.07 0.08 0.09 0.10 0.10 0.10 0.09 0.10 0.09 0.08 0.08 0.08 0.07 0.07 0.07 0.08 0.09
0.07 0.06 0.05 0.05 0.05 0.05 0.04 0.05 0.06 0.06 0.06 0.05 0.05 0.05 0.05 0.05 0.04 0.04 0.03 0.04 0.04 0.05 0.05 0.07 0.09 0.11 0.12 0.12 0.12 0.12 0.12 0.12 0.11 0.10 0.08 0.08 0.07 0.07
0.07 0.06 0.05 0.05 0.05 0.05 0.05 0.04 0.05 0.06 0.05 0.04 0.03 0.03 0.03 0.03 0.03 0.03 0.04 0.04 0.05 0.05 0.07 0.09 0.10 0.11 0.11 0.11 0.13 0.13 0.12 0.11 0.10 0.10 0.09 0.10 0.10 0.10
0.07 0.08 0.06 0.04 0.04 0.03 0.04 0.03 0.03 0.02 0.02 0.02 0.02 0.02 0.02 0.03 0.04 0.04 0.05 0.05 0.06 0.08 0.08 0.08 0.08 0.08 0.07 0.08 0.10 0.10 0.10 0.10 0.10 0.10 0.10 0.11 0.11 0.09
0.04 0.03 0.03 0.03 0.02 0.02 0.03 0.03 0.02 0.02 0.01 0.01 0.01 0.02 0.02 0.02 0.03 0.03 0.05 0.05 0.04 0.05 0.04 0.04 0.04 0.04 0.04 0.05 0.07 0.08 0.09 0.09 0.10 0.10 0.10 0.11 0.10 0.10
0.03 0.02 0.02 0.02 0.02 0.02 0.03 0.03 0.03 0.02 0.01 0.01 0.01 0.01 0.02 0.02 0.03 0.03 0.03 0.03 0.03 0.03 0.02 0.03 0.02 0.03 0.03 0.04 0.05 0.07 0.07 0.08 0.10 0.10 0.10 0.10 0.10 0.09
0.03 0.04 0.03 0.03 0.04 0.04 0.04 0.04 0.03 0.03 0.02 0.02 0.02 0.02 0.02 0.02 0.03 0.03 0.03 0.04 0.03 0.03 0.02 0.02 0.02 0.03 0.04 0.04 0.05 0.06 0.07 0.09 0.10 0.10 0.10 0.09 0.09 0.08
0.08 0.07 0.07 0.06 0.06 0.05 0.04 0.04 0.04 0.04 0.04 0.04 0.05 0.05 0.05 0.05 0.04 0.03 0.03 0.04 0.04 0.03 0.02 0.03 0.04 0.04 0.06 0.07 0.08 0.08 0.08 0.08 0.09 0.10 0.10 0.10 0.10 0.08
0.04 0.04 0.04 0.03 0.02 0.02 0.02 0.02 0.03 0.03 0.04 0.05 0.05 0.06 0.06 0.06 0.05 0.04 0.04 0.04 0.03 0.03 0.03 0.03 0.04 0.05 0.07 0.08 0.09 0.09 0.09 0.08 0.08 0.08 0.08 0.10 0.09 0.09
0.02 0.02 0.02 0.01 0.01 0.01 0.01 0.01 0.01 0.01 0.01 0.01 0.02 0.02 0.03 0.04 0.04 0.04 0.04 0.05 0.05 0.04 0.03 0.04 0.05 0.06 0.07 0.07 0.07 0.07 0.08 0.07 0.07 0.06 0.07 0.07 0.07 0.07
0.00 0.01 0.00 0.00 0.00 0.00 0.00 0.01 0.01 0.01 0.01 0.01 0.01 0.02 0.02 0.02 0.02 0.03 0.03 0.04 0.05 0.04 0.04 0.04 0.04 0.04 0.05 0.05 0.06 0.06 0.06 0.06 0.06 0.05 0.06 0.06 0.06 0.05
0.00 0.00 0.00 0.00 0.00 0.00 0.00 0.00 0.01 0.01 0.01 0.01 0.01 0.01 0.01 0.02 0.02 0.02 0.03 0.03 0.03 0.02 0.03 0.03 0.04 0.04 0.05 0.06 0.06 0.06 0.05 0.05 0.04 0.03 0.03 0.03 0.03 0.03
0.00 0.00 0.00 0.00 0.00 0.00 0.01 0.00 0.01 0.01 0.01 0.01 0.01 0.01 0.01 0.01 0.01 0.02 0.02 0.02 0.02 0.02 0.02 0.03 0.03 0.04 0.05 0.06 0.05 0.04 0.04 0.03 0.03 0.03 0.02 0.02 0.02 0.02
0.00 0.00 0.00 0.01 0.00 0.00 0.01 0.01 0.01 0.01 0.01 0.01 0.01 0.01 0.01 0.01 0.02 0.02 0.02 0.02 0.03 0.03 0.03 0.04 0.04 0.04 0.04 0.05 0.05 0.04 0.03 0.03 0.03 0.03 0.02 0.02 0.02 0.01
0.01 0.01 0.01 0.01 0.01 0.02 0.02 0.02 0.02 0.02 0.01 0.01 0.01 0.01 0.02 0.02 0.02 0.02 0.03 0.03 0.04 0.04 0.06 0.06 0.06 0.05 0.05 0.04 0.04 0.04 0.03 0.02 0.02 0.02 0.02 0.02 0.01 0.01
0.02 0.02 0.02 0.02 0.03 0.03 0.03 0.03 0.03 0.03 0.02 0.02 0.02 0.02 0.03 0.03 0.04 0.04 0.05 0.06 0.06 0.07 0.08 0.08 0.07 0.07 0.06 0.05 0.04 0.04 0.04 0.03 0.02 0.02 0.02 0.02 0.02 0.01
0.02 0.02 0.02 0.02 0.02 0.02 0.02 0.02 0.03 0.03 0.04 0.04 0.05 0.05 0.05 0.06 0.06 0.05 0.06 0.06 0.07 0.08 0.08 0.09 0.09 0.08 0.07 0.07 0.06 0.05 0.05 0.04 0.03 0.02 0.02 0.01 0.01 0.01
0.02 0.02 0.02 0.01 0.02 0.02 0.02 0.03 0.03 0.04 0.05 0.05 0.05 0.05 0.05 0.05 0.05 0.05 0.06 0.06 0.06 0.06 0.06 0.06 0.06 0.07 0.07 0.07 0.06 0.05 0.04 0.03 0.02 0.02 0.01 0.01 0.00 0.00
MSLP
1017.18 1017.20 1017.24 1017.29 1017.30 1017.24 1017.08 1016.78 1016.36 1015.81 1015.19 1014.54 1013.92 1013.40 1013.03 1012.83 1012.80 1012.93 1013.19 1013.51 1013.84 1014.15 1014.38 1014.54 1014.64 1014.71 1014.80 1014.95 1015.20 1015.59 1016.13 1016.80 1017.58 1018.44 1019.33 1020.20 1021.02 1021.76
1017.04 1017.03 1017.05 1017.10 1017.12 1017.09 1016.96 1016.70 1016.31 1015.80 1015.19 1014.55 1013.93 1013.39 1012.99 1012.75 1012.68 1012.76 1012.96 1013.23 1013.52 1013.77 1013.97 1014.09 1014.17 1014.22 1014.30 1014.46 1014.75 1015.18 1015.77 1016.51 1017.36 1018.29 1019.24 1020.16 1021.02 1021.79
1017.06 1017.00 1016.99 1017.01 1017.03 1016.99 1016.88 1016.64 1016.28 1015.80 1015.22 1014.60 1013.99 1013.45 1013.03 1012.76 1012.66 1012.70 1012.86 1013.10 1013.35 1013.58 1013.76 1013.88 1013.96 1014.03 1014.14 1014.33 1014.65 1015.13 1015.76 1016.53 1017.41 1018.36 1019.32 1020.25 1021.11 1021.87
1017.24 1017.14 1017.08 1017.05 1017.03 1016.97 1016.84 1016.61 1016.26 1015.80 1015.24 1014.64 1014.04 1013.51 1013.08 1012.80 1012.68 1012.70 1012.84 1013.06 1013.32 1013.56 1013.77 1013.93 1014.06 1014.19 1014.36 1014.60 1014.96 1015.47 1016.11 1016.89 1017.76 1018.68 1019.61 1020.50 1021.32 1022.05
1017.54 1017.39 1017.28 1017.19 1017.12 1017.01 1016.85 1016.59 1016.24 1015.77 1015.22 1014.63 1014.04 1013.51 1013.09 1012.81 1012.68 1012.70 1012.86 1013.10 1013.39 1013.70 1013.98 1014.23 1014.46 1014.68 1014.94 1015.25 1015.66 1016.19 1016.83 1017.57 1018.39 1019.26 1020.12 1020.93 1021.68 1022.35
1017.87 1017.69 1017.53 1017.39 1017.25 1017.09 1016.87 1016.57 1016.18 1015.70 1015.14 1014.55 1013.96 1013.44 1013.02 1012.75 1012.64 1012.69 1012.88 1013.18 1013.55 1013.95 1014.35 1014.74 1015.10 1015.45 1015.81 1016.21 1016.67 1017.21 1017.83 1018.53 1019.27 1020.04 1020.80 1021.52 1022.18 1022.77
1018.15 1017.95 1017.76 1017.57 1017.37 1017.15 1016.87 1016.52 1016.09 1015.57 1015.00 1014.40 1013.81 1013.29 1012.89 1012.63 1012.55 1012.64 1012.90 1013.28 1013.76 1014.28 1014.83 1015.37 1015.88 1016.38 1016.86 1017.35 1017.87 1018.42 1019.01 1019.64 1020.29 1020.95 1021.59 1022.20 1022.76 1023.26
1018.28 1018.09 1017.88 1017.66 1017.42 1017.15 1016.82 1016.43 1015.95 1015.41 1014.82 1014.21 1013.63 1013.12 1012.74 1012.51 1012.47 1012.61 1012.94 1013.41 1014.00 1014.66 1015.35 1016.04 1016.71 1017.34 1017.95 1018.52 1019.08 1019.64 1020.19 1020.75 1021.31 1021.85 1022.38 1022.87 1023.32 1023.74
1018.22 1018.05 1017.85 1017.63 1017.37 1017.07 1016.72 1016.29 1015.80 1015.25 1014.66 1014.05 1013.49 1013.01 1012.65 1012.46 1012.46 1012.66 1013.04 1013.59 1014.27 1015.04 1015.85 1016.67 1017.47 1018.22 1018.92 1019.56 1020.15 1020.70 1021.22 1021.71 1022.18 1022.62 1023.03 1023.42 1023.78 1024.11
1017.98 1017.85 1017.68 1017.47 1017.23 1016.93 1016.57 1016.15 1015.67 1015.13 1014.56 1013.99 1013.47 1013.03 1012.72 1012.57 1012.61 1012.84 1013.27 1013.87 1014.60 1015.44 1016.32 1017.21 1018.08 1018.90 1019.65 1020.33 1020.93 1021.47 1021.94 1022.37 1022.75 1023.10 1023.42 1023.72 1024.00 1024.26
1017.60 1017.52 1017.40 1017.23 1017.01 1016.74 1016.42 1016.03 1015.59 1015.10 1014.59 1014.09 1013.63 1013.25 1013.00 1012.89 1012.97 1013.23 1013.67 1014.27 1015.01 1015.84 1016.72 1017.62 1018.50 1019.32 1020.07 1020.75 1021.33 1021.83 1022.27 1022.64 1022.96 1023.24 1023.49 1023.72 1023.94 1024.14
1017.16 1017.13 1017.06 1016.94 1016.78 1016.56 1016.28 1015.95 1015.58 1015.17 1014.75 1014.34 1013.98 1013.68 1013.50 1013.45 1013.55 1013.82 1014.24 1014.80 1015.48 1016.25 1017.07 1017.90 1018.71 1019.48 1020.18 1020.80 1021.34 1021.80 1022.19 1022.51 1022.78 1023.01 1023.21 1023.40 1023.58 1023.75
1016.72 1016.75 1016.73 1016.66 1016.54 1016.38 1016.17 1015.92 1015.64 1015.33 1015.02 1014.73 1014.47 1014.28 1014.18 1014.19 1014.31 1014.57 1014.94 1015.43 1016.01 1016.66 1017.35 1018.05 1018.74 1019.40 1020.00 1020.54 1021.01 1021.42 1021.76 1022.04 1022.28 1022.48 1022.66 1022.82 1022.98 1023.13
1016.33 1016.40 1016.42 1016.39 1016.32 1016.21 1016.06 1015.89 1015.70 1015.51 1015.32 1015.15 1015.02 1014.94 1014.93 1015.00 1015.15 1015.38 1015.70 1016.09 1016.54 1017.04 1017.56 1018.10 1018.63 1019.14 1019.62 1020.05 1020.44 1020.79 1021.09 1021.35 1021.57 1021.76 1021.93 1022.09 1022.24 1022.39
1015.97 1016.07 1016.11 1016.12 1016.08 1016.01 1015.91 1015.81 1015.71 1015.62 1015.55 1015.50 1015.50 1015.53 1015.61 1015.74 1015.91 1016.13 1016.38 1016.67 1016.99 1017.33 1017.68 1018.04 1018.40 1018.76 1019.10 1019.43 1019.75 1020.04 1020.31 1020.55 1020.77 1020.97 1021.15 1021.32 1021.48 1021.63
1015.62 1015.73 1015.79 1015.81 1015.78 1015.74 1015.68 1015.63 1015.59 1015.58 1015.61 1015.68 1015.78 1015.92 1016.09 1016.27 1016.47 1016.68 1016.88 1017.09 1017.29 1017.48 1017.68 1017.88 1018.09 1018.31 1018.54 1018.78 1019.03 1019.28 1019.53 1019.78 1020.01 1020.23 1020.43 1020.62 1020.79 1020.96
1015.22 1015.35 1015.42 1015.43 1015.41 1015.37 1015.33 1015.30 1015.31 1015.36 1015.46 1015.61 1015.80 1016.02 1016.26 1016.50 1016.73 1016.93 1017.11 1017.25 1017.36 1017.46 1017.54 1017.62 1017.72 1017.83 1017.98 1018.16 1018.38 1018.61 1018.86 1019.12 1019.37 1019.61 1019.84 1020.05 1020.24 1020.43
1014.78 1014.92 1014.99 1015.00 1014.97 1014.93 1014.88 1014.86 1014.88 1014.96 1015.10 1015.30 1015.54 1015.82 1016.11 1016.39 1016.64 1016.86 1017.02 1017.13 1017.20 1017.23 1017.25 1017.27 1017.30 1017.37 1017.48 1017.63 1017.83 1018.07 1018.33 1018.61 1018.88 1019.15 1019.40 1019.63 1019.84 1020.03
1014.33 1014.48 1014.55 1014.55 1014.52 1014.46 1014.40 1014.37 1014.39 1014.47 1014.62 1014.83 1015.09 1015.39 1015.70 1016.00 1016.27 1016.50 1016.66 1016.78 1016.83 1016.85 1016.86 1016.86 1016.88 1016.94 1017.04 1017.20 1017.41 1017.66 1017.94 1018.24 1018.53 1018.81 1019.08 1019.31 1019.53 1019.72
1013.93 1014.09 1014.16 1014.18 1014.14 1014.07 1014.00 1013.95 1013.95 1014.01 1014.13 1014.32 1014.57 1014.85 1015.16 1015.46 1015.73 1015.96 1016.14 1016.27 1016.34 1016.38 1016.40 1016.43 1016.48 1016.56 1016.69 1016.87 1017.10 1017.37 1017.67 1017.97 1018.27 1018.56 1018.81 1019.04 1019.25 1019.44
1013.66 1013.83 1013.93 1013.95 1013.91 1013.84 1013.76 1013.70 1013.67 1013.69 1013.78 1013.92 1014.12 1014.36 1014.63 1014.90 1015.16 1015.38 1015.57 1015.72 1015.82 1015.90 1015.97 1016.04 1016.13 1016.26 1016.42 1016.63 1016.88 1017.17 1017.46 1017.76 1018.05 1018.32 1018.56 1018.76 1018.94 1019.11
1013.59 1013.78 1013.89 1013.93 1013.92 1013.85 1013.77 1013.69 1013.63 1013.61 1013.64 1013.72 1013.86 1014.03 1014.24 1014.46 1014.68 1014.89 1015.08 1015.24 1015.38 1015.50 1015.61 1015.74 1015.88 1016.04 1016.24 1016.47 1016.73 1017.01 1017.30 1017.58 1017.83 1018.07 1018.27 1018.43 1018.58 1018.70
1013.74 1013.94 1014.08 1014.14 1014.14 1014.10 1014.02 1013.93 1013.85 1013.78 1013.75 1013.76 1013.82 1013.92 1014.05 1014.21 1014.39 1014.56 1014.74 1014.91 1015.07 1015.22 1015.38 1015.54 1015.72 1015.92 1016.14 1016.38 1016.63 1016.88 1017.14 1017.37 1017.59 1017.77 1017.92 1018.04 1018.14 1018.23
Thickness
5735 5734 5733 5733 5733 5732 5729 5726 5720 5717 5717 5717 5716 5715 5713 5710 5708 5706 5704 5702 5699 5696 5693 5690 5687 5684 5681 5679 5677 5674 5671 5669 5666 5663 5661 5659 5656 5654
5731 5730 5729 5730 5730 5729 5728 5726 5723 5719 5714 5714 5711 5710 5707 5705 5702 5700 5699 5696 5693 5691 5688 5685 5682 5680 5676 5674 5670 5668 5665 5662 5659 5656 5654 5651 5649 5646
5728 5727 5726 5726 5726 5726 5724 5723 5720 5717 5711 5709 5707 5704 5701 5698 5695 5694 5693 5691 5688 5685 5683 5680 5677 5674 5671 5668 5664 5661 5658 5655 5652 5649 5646 5644 5641 5638
5724 5723 5722 5722 5721 5720 5719 5718 5716 5713 5709 5704 5701 5698 5695 5692 5690 5688 5687 5685 5682 5679 5677 5674 5671 5668 5665 5662 5658 5655 5651 5647 5645 5642 5639 5636 5633 5629
5720 5718 5717 5717 5715 5715 5714 5713 5712 5710 5707 5702 5698 5694 5691 5688 5685 5683 5681 5678 5676 5673 5670 5668 5665 5662 5658 5655 5652 5648 5644 5641 5637 5634 5630 5627 5624 5620
5715 5714 5712 5711 5710 5710 5709 5707 5705 5703 5700 5697 5693 5689 5686 5683 5680 5678 5675 5673 5671 5668 5665 5661 5657 5654 5651 5648 5644 5641 5637 5633 5629 5626 5622 5618 5615 5611
5710 5708 5707 5705 5704 5703 5703 5701 5699 5697 5695 5692 5688 5684 5680 5677 5674 5672 5670 5668 5665 5662 5659 5656 5652 5648 5643 5639 5635 5632 5629 5625 5621 5617 5613 5609 5605 5601
5704 5703 5702 5700 5698 5695 5694 5692 5691 5691 5689 5686 5684 5680 5675 5673 5670 5667 5664 5662 5658 5656 5653 5649 5645 5641 5637 5633 5628 5625 5621 5617 5612 5608 5604 5600 5595 5591
5698 5697 5697 5695 5692 5691 5688 5685 5683 5682 5680 5680 5678 5675 5671 5668 5664 5661 5657 5655 5652 5649 5645 5641 5637 5633 5629 5625 5621 5616 5613 5608 5604 5599 5594 5590 5585 5580
5692 5690 5688 5687 5685 5683 5682 5680 5678 5676 5674 5673 5671 5669 5666 5662 5658 5655 5651 5647 5645 5641 5637 5633 5630 5625 5621 5617 5611 5608 5603 5599 5594 5589 5584 5580 5575 5570
5685 5683 5681 5678 5674 5673 5673 5672 5671 5669 5666 5663 5661 5659 5656 5653 5650 5648 5645 5643 5640 5636 5631 5626 5622 5617 5613 5608 5603 5598 5594 5589 5585 5580 5575 5570 5565 5560
5679 5676 5672 5670 5667 5665 5666 5665 5663 5661 5658 5656 5653 5651 5648 5645 5642 5640 5639 5636 5634 5629 5624 5619 5615 5610 5604 5599 5595 5590 5585 5580 5575 5571 5566 5561 5556 5551
5674 5671 5666 5661 5658 5657 5656 5656 5652 5650 5650 5648 5646 5644 5641 5638 5635 5632 5629 5627 5624 5621 5617 5611 5607 5603 5598 5592 5587 5581 5577 5572 5567 5562 5557 5552 5547 5543
5666 5663 5658 5652 5650 5648 5647 5644 5642 5642 5643 5641 5638 5635 5632 5629 5625 5622 5618 5615 5612 5609 5605 5602 5598 5593 5589 5584 5579 5573 5568 5564 5559 5555 5550 5543 5538 5534
5657 5652 5648 5644 5642 5641 5637 5635 5635 5636 5634 5632 5629 5626 5622 5619 5615 5612 5608 5604 5601 5598 5594 5590 5588 5584 5580 5576 5571 5565 5560 5555 5551 5546 5542 5537 5533 5527
5647 5642 5638 5635 5634 5631 5630 5629 5628 5626 5624 5622 5619 5616 5612 5609 5606 5603 5600 5597 5593 5588 5583 5579 5576 5573 5571 5566 5563 5558 5553 5548 5543 5538 5533 5529 5525 5521
5638 5636 5633 5631 5629 5626 5623 5621 5619 5616 5614 5611 5608 5605 5602 5599 5596 5593 5589 5587 5584 5580 5576 5570 5566 5563 5560 5557 5553 5550 5545 5540 5535 5530 5524 5522 5519 5516
5629 5630 5627 5624 5621 5618 5615 5612 5609 5606 5602 5600 5597 5595 5592 5589 5586 5583 5580 5577 5574 5571 5568 5564 5559 5555 5551 5547 5543 5540 5537 5533 5528 5523 5519 5517 5515 5512
5622 5622 5618 5615 5611 5608 5605 5602 5599 5595 5592 5590 5587 5585 5582 5579 5576 5574 5571 5568 5565 5562 5559 5555 5552 5549 5546 5543 5537 5531 5529 5525 5522 5518 5515 5512 5510 5507
5614 5612 5608 5605 5601 5598 5595 5592 5589 5586 5583 5580 5577 5575 5572 5569 5567 5564 5561 5558 5555 5553 5550 5546 5543 5540 5538 5535 5531 5526 5519 5518 5515 5512 5510 5507 5504 5500
5605 5602 5599 5596 5592 5588 5585 5582 5580 5577 5573 5570 5568 5564 5562 5560 5557 5555 5552 5546 5544 5543 5541 5538 5534 5529 5527 5525 5522 5519 5516 5509 5506 5503 5501 5500 5499 5497
5595 5592 5589 5585 5582 5579 5576 5573 5571 5568 5565 5561 5558 5555 5552 5550 5548 5545 5544 5541 5538 5535 5533 5530 5525 5522 5520 5517 5515 5512 5509 5505 5500 5495 5492 5491 5491 5491
5586 5582 5579 5575 5572 5568 5566 5563 5561 5559 5556 5552 5549 5546 5544 5541 5538 5537 5535 5532 5530 5527 5524 5522 5518 5515 5512 5510 5508 5506 5503 5501 5498 5494 5491 5487 5483 5480